#timestamp,LO_Frequency,Hit,StdDev 
1636534815.6,286046998.2,P
1636534835.5,286046998.3,P
1636534855.3,286047000.7,N
1636534875.1,286047001.2,N
1636534895.9,286047001.1,N
1636534915.7,286047001.1,N
1636534935.5,286047000.9,N
1636534955.4,286046998.5,N
1636534975.2,286047001.2,N
1636534995.1,286047000.5,N
1636534996.0,286047000.5,N
1636535015.8,286046998.1,N
1636535035.6,286047000.6,N
1636535055.5,286047000.2,N
1636535075.3,286047000.3,N
1636535095.2,286047000.9,N
1636535115.9,286047001.9,N
1636535135.7,286047002.6,N
1636535155.6,286047002.4,N
1636535175.4,286046999.9,N
1636535195.2,286047001.0,N
1636535215.1,286047000.4,N
1636535216.0,286047000.4,N
1636535235.8,286047000.6,N
1636535255.7,286047000.5,N
1636535275.5,286047000.0,N
1636535295.3,286047002.2,N
1636535315.2,286046999.7,N
1636535335.0,286047002.1,N
1636535335.9,286047002.1,N
1636535355.7,286047002.2,N
1636535375.6,286047001.9,N
1636535395.4,286047002.5,N
1636535415.3,286047002.0,N
1636535435.1,286047002.1,N
1636535436.0,286047002.1,N
1636535455.8,286047002.6,N
1636535475.7,286047002.6,N
1636535495.5,286047002.5,N
1636535515.4,286047002.1,N
1636535535.2,286047002.7,N
1636535555.0,286047002.5,N
1636535555.9,286047002.5,N
1636535575.8,286047002.1,N
1636535595.6,286047002.2,N
1636535615.5,286047003.1,Y
1636535635.3,286047004.0,P
1636535655.1,286047003.2,N
1636535675.9,286047001.8,N
1636535695.7,286047001.3,N
1636535715.5,286047001.9,N
1636535735.4,286047001.3,N
1636535755.2,286047003.9,Y
1636535775.1,286047000.7,P
1636535776.0,286047000.7,N
1636535795.8,286047000.7,N
1636535815.6,286046998.2,N
1636535835.5,286046998.2,N
1636535855.3,286046998.9,N
1636535875.2,286046998.7,N
1636535895.9,286046998.8,N
1636535915.7,286047000.6,N
1636535935.6,286046998.5,N
1636535955.4,286046998.2,N
1636535975.2,286046999.2,N
1636535995.1,286047001.2,N
1636535996.0,286047001.2,N
1636536015.8,286046998.6,N
1636536035.7,286046998.5,N
1636536055.5,286046998.9,N
1636536075.3,286046998.8,N
1636536095.2,286046999.4,N
1636536115.0,286046999.1,N
1636536115.9,286046999.1,N
1636536135.7,286046999.3,N
1636536155.6,286046997.2,N
1636536175.4,286046997.1,N
1636536195.3,286046999.5,N
1636536215.1,286046999.5,N
1636536216.0,286046999.5,N
1636536235.8,286046997.2,N
1636536255.7,286046996.6,N
1636536275.5,286046997.2,N
1636536295.4,286046995.3,Y
1636536315.2,286046996.5,P
1636536335.0,286046999.2,N
1636536335.9,286046999.2,N
1636536355.8,286046998.4,N
1636536375.6,286046998.2,N
1636536395.4,286047000.3,N
1636536415.3,286047000.7,N
1636536435.1,286047001.2,N
1636536455.9,286047000.8,N
1636536475.7,286047001.2,N
1636536495.5,286047001.1,N
1636536515.4,286047000.4,N
1636536535.2,286047000.4,N
1636536555.0,286047000.8,N
1636536555.9,286047000.8,N
1636536575.8,286047001.1,N
1636536595.6,286046999.0,N
1636536615.5,286046998.8,N
1636536635.3,286046999.3,N
1636536655.1,286046998.1,N
1636536675.9,286047000.1,N
1636536695.7,286047000.4,N
1636536715.5,286046998.2,N
1636536735.4,286046998.3,N
1636536755.2,286046998.9,N
1636536775.1,286046998.7,N
1636536776.0,286046998.7,N
1636536795.8,286047001.1,N
1636536815.6,286047000.5,N
1636536835.5,286047000.5,N
1636536855.3,286047000.0,N
1636536875.2,286046999.7,N
1636536895.9,286047001.2,N
1636536915.7,286046998.3,N
1636536935.6,286046998.4,N
1636536955.4,286046998.6,N
1636536975.2,286047001.1,N
1636536995.1,286047001.2,N
1636536996.0,286047001.2,N
1636537015.8,286047000.3,N
1636537035.7,286046998.2,N
1636537055.5,286047001.2,N
1636537075.3,286047000.3,N
1636537095.2,286046998.6,N
1636537115.0,286046999.5,N
1636537115.9,286046999.5,N
1636537135.7,286046999.5,N
1636537155.6,286046999.6,N
1636537175.4,286046999.1,N
1636537195.3,286046998.9,N
1636537215.1,286046999.3,N
1636537216.0,286046999.3,N
1636537235.8,286047001.1,N
1636537255.7,286046998.7,N
1636537275.5,286046998.6,N
1636537295.4,286046998.1,N
1636537315.2,286046999.4,N
1636537335.0,286046998.8,N
1636537335.9,286046998.8,N
1636537355.8,286046999.6,N
1636537375.6,286046998.8,N
1636537395.4,286046998.8,N
1636537415.3,286046998.9,N
1636537435.1,286046998.5,N
1636537455.9,286046999.0,N
1636537475.7,286046996.9,Y
1636537495.5,286046999.2,P
1636537515.4,286046998.8,P
1636537535.2,286046998.5,P
1636537555.1,286047001.2,Y
1636537556.0,286047001.2,P
1636537575.8,286047000.5,N
1636537595.6,286047000.0,N
1636537615.5,286047000.0,N
1636537635.3,286047001.1,N
1636537655.1,286047000.9,N
1636537675.9,286047001.0,N
1636537695.7,286046999.8,N
1636537715.6,286047001.7,N
1636537735.4,286047002.5,Y
1636537755.2,286047002.6,P
1636537775.1,286047001.9,N
1636537776.0,286047001.9,N
1636537795.8,286047002.7,Y
1636537815.7,286046998.3,P
1636537835.5,286046998.6,N
1636537855.3,286046998.2,N
1636537875.2,286046998.1,N
1636537895.9,286047000.0,N
1636537915.7,286046998.4,N
1636537935.6,286046998.9,N
1636537955.4,286046998.7,N
1636537975.3,286046999.4,N
1636537995.1,286046999.1,N
1636537996.0,286046999.1,N
1636538015.8,286046999.6,N
1636538035.7,286046998.7,N
1636538055.5,286046999.1,N
1636538075.3,286046998.1,N
1636538095.2,286047000.6,N
1636538115.0,286047001.2,N
1636538115.9,286047001.2,N
1636538135.8,286047000.6,N
1636538155.6,286047000.3,N
1636538175.4,286046999.7,N
1636538195.3,286047000.3,N
1636538215.1,286047000.4,N
1636538235.8,286047000.4,N
1636538255.7,286047000.2,N
1636538275.5,286047001.2,N
1636538295.4,286046998.1,N
1636538315.2,286046998.7,N
1636538335.0,286046999.1,N
1636538335.9,286046999.1,N
1636538355.8,286046999.5,N
1636538375.6,286046998.5,N
1636538395.4,286046998.4,N
